Погода в Приютном

Россия / Республика Калмыкия     46°06′01″N   43°30′44″E
темп.,
°C
ветер,
м/с
пор.,
м/с
влажн.,
%
обл.,
%
осадки,
мм/ч
давл.,
гПа
погр.,
м
26 октября, вт
вт2600:00+4ссв33525 0.0 103250
03:00+2ссв22575 0.0 103321
06:000с22675 0.0 103428
09:00+3с22575 0.0 1034385
12:00+6ссз23440 0.0 1033962
15:00+7с22370 0.0 10321128
18:00+4св22450 0.0 103311
21:00+4в33491 0.0 103322
27 октября, ср
ср2700:00+3вюв33535 0.0 103226
03:00+2вюв33575 0.0 103240
06:00+1вюв35610 0.0 103182
09:00+5юв57470 0.0 1031378
12:00+9юв67330 0.0 1029815
15:00+11юв66290 0.0 1027903
18:00+7юв48400 0.0 1026143
21:00+5юв46510 0.0 1026100
28 октября, чт
чт2800:00+4юв35610 0.0 102576
03:00+3ююв33810 0.0 102434
06:00+3ююв33880 0.0 102433
09:00+6зюз2364100 0.0 1024256
12:00+10зсз5550100 0.0 1024607
15:00+11сз5645100 0.0 1023717
18:00+9зсз3645100 0.0 1023165
21:00+9з4844100 0.0 1023219
29 октября, пт
пт2900:00+7зюз495182 0.0 1022188
03:00+6зюз51153100 0.0 1022250
06:00+8зюз61356100 0.0 1021416
09:00+8з71477100 0.3 1022570
12:00+12зсз81068100 0.9 1022820
15:00+12зсз697491 1.1 1023692
18:00+10с71172100 0.3 1026809
21:00+7с498093 0.4 1028269
30 октября, сб
сб3000:00+7ссв58709 0.0 1030614
03:00+4ссв35765 0.0 1032125
06:00+2с33785 0.0 103361
09:00+5ссв34595 0.0 1035363
12:00+8св34497 0.0 10351010
15:00+9всв555017 0.0 1035922
18:00+5в47655 0.0 1036177
21:00+4в48755 0.0 1037210